Location: Borojevi?i
(45.0486°N, 16.2297°E)
Time: 16:08:56
(UTC+00:00)

Okean 2 Rocket - Pass Details

Date: 08 August 2020
Orbit: 617 x 641 km, 82.5° (Epoch: 18 September)

Event Time Altitude Azimuth Distance (km) Brightness Sun altitude
Exits shadow 23:45:22 51° 22° (NNE) 799 3.8 -28.3°
Drops below altitude 10° 23:48:48 10° 11° (N) 2,033 6.7 -28.2°
Sets 23:51:03 0° 10° (N) 2,950 7.8 -28.1°
